Hourly Weather Krag

Today, 27 October, Tuesday

Time Temperature Precipitation Wind Pressure Humidity
00:00 +11°C° 0 mm 3 mps 741 mmHg 90%
01:00 +10°C° 0 mm 2 mps 742 mmHg 91%
02:00 +10°C° 0 mm 2 mps 742 mmHg 91%
03:00 +10°C° 0 mm 2 mps 742 mmHg 91%
04:00 +11°C° 0 mm 1 mps 743 mmHg 91%
05:00 +10°C° 0 mm 2 mps 743 mmHg 92%
06:00 +9°C° 0 mm 2 mps 743 mmHg 93%
07:00 +10°C° 0 mm 2 mps 744 mmHg 92%
08:00 +10°C° 0.3 mm 2 mps 744 mmHg 93%
09:00 +10°C° 0.3 mm 2 mps 744 mmHg 93%
10:00 +10°C° 0.3 mm 2 mps 745 mmHg 93%
11:00 +10°C° 0.1 mm 3 mps 745 mmHg 89%
12:00 +11°C° 0.1 mm 3 mps 745 mmHg 84%
13:00 +11°C° 0 mm 3 mps 745 mmHg 80%
14:00 +11°C° 0 mm 3 mps 745 mmHg 77%
15:00 +11°C° 0 mm 3 mps 745 mmHg 75%
16:00 +11°C° 0 mm 3 mps 745 mmHg 72%
17:00 +10°C° 0 mm 3 mps 746 mmHg 74%
18:00 +10°C° 0 mm 3 mps 746 mmHg 75%
19:00 +10°C° 0 mm 3 mps 746 mmHg 76%
20:00 +9°C° 0 mm 3 mps 746 mmHg 79%
21:00 +9°C° 0 mm 3 mps 746 mmHg 81%
22:00 +8°C° 0 mm 3 mps 746 mmHg 83%
23:00 +8°C° 0 mm 3 mps 747 mmHg 83%

Tomorrow, 28 October, Wednesday

Time Temperature Precipitation Wind Pressure Humidity
00:00 +8°C° 0 mm 3 mps 747 mmHg 83%
01:00 +8°C° 0 mm 3 mps 747 mmHg 84%
02:00 +8°C° 0 mm 3 mps 747 mmHg 84%
03:00 +7°C° 0 mm 3 mps 746 mmHg 84%
04:00 +7°C° 0 mm 3 mps 746 mmHg 84%
05:00 +7°C° 0 mm 3 mps 746 mmHg 84%
06:00 +6°C° 0 mm 4 mps 746 mmHg 83%
07:00 +6°C° 0 mm 4 mps 747 mmHg 83%
08:00 +7°C° 0 mm 5 mps 747 mmHg 76%
09:00 +8°C° 0 mm 5 mps 747 mmHg 70%
10:00 +9°C° 0 mm 6 mps 747 mmHg 64%
11:00 +10°C° 0 mm 5 mps 746 mmHg 62%
12:00 +10°C° 0 mm 5 mps 746 mmHg 61%
13:00 +12°C° 0 mm 5 mps 746 mmHg 60%
14:00 +10°C° 0 mm 5 mps 746 mmHg 64%
15:00 +11°C° 0 mm 4 mps 746 mmHg 67%
16:00 +10°C° 0 mm 4 mps 746 mmHg 71%
17:00 +10°C° 0 mm 4 mps 746 mmHg 73%
18:00 +10°C° 0 mm 4 mps 746 mmHg 76%
19:00 +8°C° 0 mm 4 mps 746 mmHg 78%
20:00 +8°C° 0 mm 4 mps 746 mmHg 80%
21:00 +8°C° 0 mm 4 mps 746 mmHg 82%
22:00 +8°C° 0 mm 4 mps 746 mmHg 84%
23:00 +9°C° 0 mm 3 mps 747 mmHg 86%

Day after tomorrow, 29 October, Thursday

Time Temperature Precipitation Wind Pressure Humidity
00:00 +8°C° 0 mm 3 mps 747 mmHg 88%
01:00 +8°C° 0 mm 3 mps 747 mmHg 90%
02:00 +8°C° 0 mm 3 mps 747 mmHg 91%
03:00 +8°C° 0 mm 3 mps 747 mmHg 92%
04:00 +8°C° 0 mm 3 mps 746 mmHg 92%
05:00 +8°C° 0 mm 3 mps 747 mmHg 92%
06:00 +7°C° 0 mm 3 mps 747 mmHg 91%
07:00 +7°C° 0 mm 3 mps 747 mmHg 90%
08:00 +7°C° 0 mm 4 mps 747 mmHg 85%
09:00 +8°C° 0 mm 4 mps 747 mmHg 81%
10:00 +9°C° 0 mm 5 mps 747 mmHg 77%
11:00 +10°C° 0.1 mm 4 mps 746 mmHg 77%
12:00 +10°C° 0.1 mm 4 mps 746 mmHg 77%
13:00 +11°C° 0.1 mm 4 mps 746 mmHg 78%
14:00 +10°C° 0.6 mm 4 mps 746 mmHg 79%
15:00 +9°C° 0.6 mm 3 mps 746 mmHg 81%
16:00 +9°C° 0.6 mm 3 mps 747 mmHg 83%
17:00 +8°C° 0 mm 3 mps 747 mmHg 84%
18:00 +8°C° 0 mm 3 mps 747 mmHg 85%
19:00 +7°C° 0 mm 3 mps 748 mmHg 86%
20:00 +7°C° 0 mm 3 mps 748 mmHg 86%
21:00 +6°C° 0 mm 4 mps 748 mmHg 86%
22:00 +6°C° 0 mm 4 mps 749 mmHg 86%
23:00 +5°C° 0 mm 4 mps 749 mmHg 88%

30 October, Friday

Time Temperature Precipitation Wind Pressure Humidity
00:00 +5°C° 0 mm 4 mps 749 mmHg 90%
01:00 +5°C° 0 mm 3 mps 749 mmHg 92%
02:00 +5°C° 0 mm 3 mps 750 mmHg 93%
03:00 +5°C° 0 mm 3 mps 750 mmHg 94%
04:00 +4°C° 0 mm 3 mps 750 mmHg 95%
05:00 +5°C° 0 mm 3 mps 750 mmHg 94%
06:00 +5°C° 0 mm 3 mps 750 mmHg 94%
07:00 +5°C° 0 mm 3 mps 750 mmHg 93%
08:00 +5°C° 0 mm 3 mps 750 mmHg 89%
09:00 +7°C° 0 mm 3 mps 750 mmHg 86%
10:00 +7°C° 0 mm 3 mps 750 mmHg 82%
11:00 +7°C° 0.3 mm 3 mps 750 mmHg 83%
12:00 +7°C° 0.3 mm 3 mps 750 mmHg 84%
13:00 +7°C° 0.3 mm 3 mps 749 mmHg 85%
14:00 +7°C° 0.9 mm 3 mps 749 mmHg 87%
15:00 +7°C° 0.9 mm 3 mps 749 mmHg 89%
16:00 +7°C° 0.9 mm 3 mps 749 mmHg 91%
17:00 +7°C° 0.2 mm 3 mps 749 mmHg 90%
18:00 +7°C° 0.2 mm 3 mps 749 mmHg 90%
19:00 +7°C° 0.2 mm 3 mps 750 mmHg 90%
20:00 +6°C° 0 mm 2 mps 750 mmHg 91%
21:00 +6°C° 0 mm 2 mps 751 mmHg 92%
22:00 +6°C° 0 mm 2 mps 751 mmHg 93%
23:00 +5°C° 0 mm 2 mps 752 mmHg 94%

31 October, Saturday

Time Temperature Precipitation Wind Pressure Humidity
00:00 +5°C° 0 mm 2 mps 752 mmHg 95%
01:00 +5°C° 0 mm 2 mps 753 mmHg 95%
02:00 +4°C° 0 mm 2 mps 753 mmHg 95%
03:00 +4°C° 0 mm 2 mps 754 mmHg 95%
04:00 +4°C° 0 mm 2 mps 754 mmHg 95%
05:00 +4°C° 0 mm 2 mps 754 mmHg 95%
06:00 +4°C° 0 mm 2 mps 755 mmHg 95%
07:00 +4°C° 0 mm 2 mps 755 mmHg 94%
08:00 +5°C° 0 mm 2 mps 756 mmHg 88%
09:00 +5°C° 0 mm 3 mps 756 mmHg 82%
10:00 +8°C° 0 mm 3 mps 757 mmHg 76%
11:00 +8°C° 0 mm 3 mps 757 mmHg 72%
12:00 +9°C° 0 mm 3 mps 757 mmHg 69%
13:00 +10°C° 0 mm 3 mps 757 mmHg 65%
14:00 +9°C° 0 mm 3 mps 757 mmHg 69%
15:00 +9°C° 0 mm 3 mps 757 mmHg 72%
16:00 +8°C° 0 mm 2 mps 757 mmHg 76%
17:00 +8°C° 0 mm 3 mps 757 mmHg 78%
18:00 +7°C° 0 mm 3 mps 757 mmHg 81%
19:00 +7°C° 0 mm 3 mps 757 mmHg 83%
20:00 +7°C° 0 mm 3 mps 757 mmHg 83%
21:00 +5°C° 0 mm 3 mps 757 mmHg 83%
22:00 +5°C° 0 mm 3 mps 757 mmHg 83%
23:00 +5°C° 0 mm 3 mps 757 mmHg 83%

1 November, Sunday

Time Temperature Precipitation Wind Pressure Humidity
00:00 +5°C° 0 mm 3 mps 757 mmHg 84%
01:00 +5°C° 0 mm 3 mps 757 mmHg 84%
02:00 +5°C° 0 mm 4 mps 757 mmHg 85%
03:00 +4°C° 0 mm 4 mps 756 mmHg 85%
04:00 +4°C° 0 mm 4 mps 756 mmHg 85%
05:00 +4°C° 0 mm 4 mps 756 mmHg 85%
06:00 +4°C° 0 mm 4 mps 755 mmHg 85%
07:00 +4°C° 0 mm 4 mps 755 mmHg 84%
08:00 +5°C° 0 mm 5 mps 755 mmHg 79%
09:00 +6°C° 0 mm 5 mps 755 mmHg 75%
10:00 +7°C° 0 mm 5 mps 754 mmHg 70%
11:00 +8°C° 0 mm 5 mps 754 mmHg 67%
12:00 +9°C° 0 mm 5 mps 754 mmHg 64%
13:00 +10°C° 0 mm 5 mps 753 mmHg 61%
14:00 +9°C° 0 mm 5 mps 753 mmHg 64%
15:00 +9°C° 0 mm 5 mps 753 mmHg 68%
16:00 +9°C° 0 mm 5 mps 752 mmHg 71%
17:00 +9°C° 0 mm 5 mps 752 mmHg 73%
18:00 +8°C° 0 mm 5 mps 752 mmHg 76%
19:00 +8°C° 0 mm 5 mps 752 mmHg 78%
20:00 +8°C° 0 mm 5 mps 752 mmHg 80%
21:00 +8°C° 0 mm 5 mps 752 mmHg 82%
22:00 +8°C° 0 mm 5 mps 752 mmHg 84%
23:00 +8°C° 0 mm 4 mps 752 mmHg 85%
Show more